Find Starlink 34898

NORAD ID: 65895 Int'l Des: 2025-224 Owner: SPXS Country: US Constellation: starlink operational
LEOCIRCULAR

实时位置

正在加载3D地球...

关于 Starlink 34898

正在加载描述...

即将过境

Passes for default location (London). Set your location on the main map for personalized predictions.

高度历史

Loading altitude history...

两行轨道根数

1 65895U 25224P 26105.52120950 .00009773 00000-0 34163-3 0 9992
2 65895 53.1615 200.2412 0001442 101.9084 258.2079 15.30203956 30517
Epoch: Apr 15, 2026 • Age: 18 hours

当前状态

高度 480.8 km
速度 7.63 km/s
星下点 53.30°N, 11.13°W
发射日期 Oct 7, 2025
运行时间 0.5 years
类型 internet

技术详情

分类 Payload
质量 575.00 kg
干质量 530.00 kg
总质量 575.00 kg
长度 0.30 m
直径 4.10 m
跨度 29.00 m
形状 Box + pan
制造商 SPXS
平台类型 Starlink V2MO
阶段状态 In Orbit
所有者/国家 SPXS/US

Most Searched